RYR54JB LBSF-EDJA

Flight info

Callsign RYR54JB
Flight time 1h 45m
Altitude 36000
Route OGOTA4S/09 OGOTA T228 UTEKA DCT OSVIX DCT RASIN DCT BEDOX DCT DIPSA DCT ERKIR L608 KPT KPT1D
Aircraft B738/M-SDE2E3FGHIRWXY/LB1

Departure

Time 2026-05-05 17:55
Airport Sofia Airport (LBSF)

Arrival

Time 2026-05-05 19:40
Airport Memmingen Allgau Airport (EDJA)
Time Latitude Longitude Altitude Speed Heading
2026-05-05 17:23 42.68976 23.40850 1742 ft 0 kts 162°
2026-05-05 17:48 42.68968 23.40854 1744 ft 2 kts 162°
2026-05-05 17:48 42.68952 23.40860 1742 ft 3 kts 161°
2026-05-05 17:49 42.68928 23.40868 1743 ft 4 kts 185°
2026-05-05 17:49 42.68916 23.40843 1748 ft 3 kts 252°
2026-05-05 17:49 42.68919 23.40795 1745 ft 8 kts 286°
2026-05-05 17:49 42.68945 23.40676 1746 ft 18 kts 286°
2026-05-05 17:50 42.68986 23.40490 1748 ft 21 kts 288°
2026-05-05 17:50 42.69028 23.40302 1746 ft 21 kts 287°
2026-05-05 17:50 42.69068 23.40119 1746 ft 20 kts 286°
2026-05-05 17:50 42.69099 23.39937 1743 ft 19 kts 279°
2026-05-05 17:51 42.69131 23.39762 1742 ft 19 kts 286°
2026-05-05 17:51 42.69168 23.39595 1745 ft 18 kts 295°
2026-05-05 17:51 42.69276 23.39545 1745 ft 18 kts
2026-05-05 17:51 42.69376 23.39558 1745 ft 12 kts
2026-05-05 17:52 42.69462 23.39569 1747 ft 12 kts
2026-05-05 17:52 42.69546 23.39580 1742 ft 12 kts
2026-05-05 17:52 42.69629 23.39588 1747 ft 12 kts
2026-05-05 17:52 42.69660 23.39591 1743 ft 0 kts
2026-05-05 17:53 42.69661 23.39591 1743 ft 1 kts
2026-05-05 17:53 42.69682 23.39593 1746 ft 5 kts
2026-05-05 17:53 42.69725 23.39598 1741 ft 8 kts
2026-05-05 17:53 42.69768 23.39643 1747 ft 9 kts 85°
2026-05-05 17:54 42.69766 23.39763 1745 ft 17 kts 94°
2026-05-05 17:54 42.69756 23.39932 1750 ft 18 kts 94°
2026-05-05 17:54 42.69746 23.40106 1747 ft 22 kts 94°
2026-05-05 17:54 42.69717 23.40621 1746 ft 90 kts 95°
2026-05-05 17:55 42.69656 23.41753 1751 ft 149 kts 94°
2026-05-05 17:55 42.69556 23.43361 1929 ft 187 kts 94°
2026-05-05 17:55 42.69430 23.45203 2462 ft 205 kts 96°
2026-05-05 17:55 42.69313 23.47205 2929 ft 217 kts 94°
2026-05-05 17:56 42.69188 23.49303 3414 ft 226 kts 95°
2026-05-05 17:56 42.69064 23.51372 3879 ft 218 kts 95°
2026-05-05 17:56 42.68947 23.53442 4410 ft 221 kts 95°
2026-05-05 17:56 42.68835 23.55538 4917 ft 223 kts 95°
2026-05-05 17:57 42.68719 23.57650 5389 ft 227 kts 95°
2026-05-05 17:57 42.68850 23.59800 5826 ft 238 kts 67°
2026-05-05 17:57 42.69964 23.61461 6391 ft 246 kts 27°
2026-05-05 17:57 42.71619 23.61974 7060 ft 247 kts 356°
2026-05-05 17:58 42.73268 23.61376 7711 ft 247 kts 336°
2026-05-05 17:58 42.74832 23.60284 7987 ft 259 kts 331°
2026-05-05 17:58 42.76390 23.59089 8006 ft 260 kts 330°
2026-05-05 17:58 42.77930 23.57789 8014 ft 262 kts 325°
2026-05-05 17:59 42.79402 23.56311 8026 ft 265 kts 323°
2026-05-05 17:59 42.80893 23.54754 8030 ft 272 kts 322°
2026-05-05 17:59 42.82393 23.53183 8026 ft 273 kts 322°
2026-05-05 17:59 42.83904 23.51606 8022 ft 275 kts 323°
2026-05-05 18:00 42.85432 23.50018 8021 ft 277 kts 323°
2026-05-05 18:00 42.86962 23.48433 8056 ft 275 kts 323°
2026-05-05 18:00 42.88467 23.46878 8330 ft 273 kts 323°
2026-05-05 18:00 42.90018 23.45278 8902 ft 281 kts 323°
2026-05-05 18:01 42.91555 23.43694 9838 ft 282 kts 323°
2026-05-05 18:01 42.93132 23.42071 10511 ft 291 kts 323°
2026-05-05 18:01 42.94818 23.40337 10712 ft 316 kts 323°
2026-05-05 18:01 42.96628 23.38475 11147 ft 331 kts 322°
2026-05-05 18:02 42.98476 23.36571 11909 ft 334 kts 323°
2026-05-05 18:02 43.00347 23.34643 12645 ft 341 kts 323°
2026-05-05 18:02 43.02258 23.32672 13333 ft 347 kts 324°
2026-05-05 18:02 43.04186 23.30683 14156 ft 348 kts 324°
2026-05-05 18:03 43.06123 23.28682 14908 ft 350 kts 324°
2026-05-05 18:03 43.08047 23.26695 15611 ft 353 kts 324°
2026-05-05 18:03 43.10014 23.24660 16338 ft 356 kts 324°
2026-05-05 18:03 43.11995 23.22610 17065 ft 358 kts 324°
2026-05-05 18:04 43.13986 23.20548 17817 ft 360 kts 324°
2026-05-05 18:04 43.15989 23.18471 18523 ft 363 kts 324°
2026-05-05 18:04 43.18019 23.16365 19043 ft 368 kts 324°
2026-05-05 18:04 43.20067 23.14239 19663 ft 370 kts 324°
2026-05-05 18:05 43.22125 23.12100 20315 ft 372 kts 324°
2026-05-05 18:05 43.24162 23.09980 20924 ft 374 kts 324°
2026-05-05 18:05 43.26238 23.07819 21508 ft 376 kts 324°
2026-05-05 18:05 43.28331 23.05638 22080 ft 379 kts 324°
2026-05-05 18:06 43.30438 23.03440 22652 ft 382 kts 324°
2026-05-05 18:06 43.31840 23.01977 23022 ft 383 kts 324°
2026-05-05 18:06 43.34695 22.98995 23734 ft 387 kts 324°
2026-05-05 18:06 43.36841 22.96750 24178 ft 389 kts 323°
2026-05-05 18:07 43.39003 22.94487 24566 ft 393 kts 323°
2026-05-05 18:07 43.41185 22.92201 25030 ft 395 kts 323°
2026-05-05 18:07 43.43373 22.89906 25484 ft 397 kts 323°
2026-05-05 18:07 43.45542 22.87628 25896 ft 399 kts 323°
2026-05-05 18:08 43.47756 22.85302 26350 ft 401 kts 323°
2026-05-05 18:08 43.49973 22.82971 26808 ft 402 kts 323°
2026-05-05 18:08 43.52201 22.80625 27226 ft 404 kts 323°
2026-05-05 18:08 43.54439 22.78267 27628 ft 406 kts 323°
2026-05-05 18:09 43.56689 22.75894 28023 ft 409 kts 323°
2026-05-05 18:09 43.58951 22.73505 28387 ft 411 kts 322°
2026-05-05 18:09 43.61225 22.71102 28754 ft 413 kts 322°
2026-05-05 18:09 43.63478 22.68719 29130 ft 415 kts 322°
2026-05-05 18:10 43.65772 22.66290 29510 ft 416 kts 322°
2026-05-05 18:10 43.68076 22.63848 29880 ft 419 kts 323°
2026-05-05 18:10 43.70396 22.61387 30149 ft 422 kts 323°
2026-05-05 18:10 43.72727 22.58911 30430 ft 423 kts 322°
2026-05-05 18:11 43.75062 22.56429 30831 ft 422 kts 322°
2026-05-05 18:11 43.77379 22.53962 31288 ft 419 kts 322°
2026-05-05 18:11 43.79683 22.51508 31714 ft 417 kts 322°
2026-05-05 18:11 43.81976 22.49063 32129 ft 416 kts 322°
2026-05-05 18:12 43.84234 22.46653 32471 ft 415 kts 322°
2026-05-05 18:12 43.86522 22.44209 32828 ft 415 kts 322°
2026-05-05 18:12 43.88787 22.41745 33209 ft 413 kts 319°
2026-05-05 18:12 43.90794 22.38907 33571 ft 412 kts 310°
2026-05-05 18:13 43.92501 22.35716 33922 ft 412 kts 302°
2026-05-05 18:13 43.93870 22.32219 34226 ft 413 kts 298°
2026-05-05 18:13 43.95168 22.28651 34404 ft 415 kts 297°
2026-05-05 18:13 43.96461 22.25056 34612 ft 417 kts 297°
2026-05-05 18:14 43.97736 22.21513 34929 ft 415 kts 297°
2026-05-05 18:14 43.99029 22.17935 35233 ft 414 kts 297°
2026-05-05 18:14 44.00324 22.14366 35472 ft 414 kts 298°
2026-05-05 18:14 44.01625 22.10791 35710 ft 415 kts 298°
2026-05-05 18:15 44.02926 22.07221 35968 ft 414 kts 298°
2026-05-05 18:15 44.05551 22.00011 35992 ft 420 kts 298°
2026-05-05 18:16 44.08171 21.92799 35974 ft 414 kts 297°
2026-05-05 18:16 44.10726 21.85746 35990 ft 410 kts 297°
2026-05-05 18:17 44.13291 21.78647 35986 ft 410 kts 297°
2026-05-05 18:17 44.15851 21.71542 35982 ft 411 kts 297°
2026-05-05 18:18 44.18409 21.64425 35987 ft 411 kts 297°
2026-05-05 18:18 44.20950 21.57340 35971 ft 412 kts 297°
2026-05-05 18:19 44.23504 21.50197 35973 ft 412 kts 297°
2026-05-05 18:19 44.26055 21.43041 35964 ft 412 kts 297°
2026-05-05 18:20 44.28626 21.35814 35975 ft 420 kts 297°
2026-05-05 18:20 44.31231 21.28473 35966 ft 429 kts 297°
2026-05-05 18:21 44.33999 21.21015 35956 ft 435 kts 300°
2026-05-05 18:21 44.37058 21.13701 35947 ft 436 kts 301°
2026-05-05 18:22 44.40162 21.06388 35944 ft 438 kts 301°
2026-05-05 18:22 44.43248 20.99032 35952 ft 438 kts 300°
2026-05-05 18:23 44.46291 20.91702 35944 ft 438 kts 300°
2026-05-05 18:23 44.49340 20.84319 35943 ft 438 kts 300°
2026-05-05 18:24 44.52377 20.76944 35947 ft 437 kts 300°
2026-05-05 18:24 44.55407 20.69567 35948 ft 436 kts 300°
2026-05-05 18:25 44.58407 20.62246 35945 ft 436 kts 299°
2026-05-05 18:25 44.61419 20.54877 35945 ft 435 kts 299°
2026-05-05 18:26 44.64425 20.47504 35941 ft 435 kts 299°
2026-05-05 18:26 44.67425 20.40126 35939 ft 435 kts 299°
2026-05-05 18:27 44.70423 20.32733 35942 ft 435 kts 298°
2026-05-05 18:27 44.73396 20.25383 35936 ft 436 kts 298°
2026-05-05 18:28 44.77883 20.14252 35940 ft 437 kts 299°
2026-05-05 18:28 44.80879 20.06798 35942 ft 438 kts 298°
2026-05-05 18:29 44.83875 19.99323 35946 ft 439 kts 298°
2026-05-05 18:29 44.86854 19.91868 35946 ft 440 kts 298°
2026-05-05 18:30 44.89851 19.84351 35947 ft 440 kts 298°
2026-05-05 18:30 44.92846 19.76816 35953 ft 440 kts 298°
2026-05-05 18:31 44.95838 19.69271 35953 ft 441 kts 298°
2026-05-05 18:31 44.98806 19.61764 35957 ft 441 kts 298°
2026-05-05 18:32 45.01791 19.54195 35955 ft 441 kts 298°
2026-05-05 18:32 45.04770 19.46621 35960 ft 440 kts 297°
2026-05-05 18:33 45.07738 19.39053 35954 ft 440 kts 297°
2026-05-05 18:33 45.10698 19.31485 35955 ft 439 kts 297°
2026-05-05 18:34 45.13629 19.23972 35966 ft 439 kts 297°
2026-05-05 18:34 45.16574 19.16401 35964 ft 439 kts 297°
2026-05-05 18:35 45.19512 19.08829 35962 ft 438 kts 297°
2026-05-05 18:35 45.22445 19.01247 35958 ft 438 kts 297°
2026-05-05 18:36 45.25352 18.93713 35954 ft 438 kts 297°
2026-05-05 18:36 45.28272 18.86123 35951 ft 438 kts 297°
2026-05-05 18:37 45.31185 18.78533 35969 ft 438 kts 297°
2026-05-05 18:37 45.34092 18.70936 35972 ft 437 kts 297°
2026-05-05 18:38 45.36972 18.63391 35973 ft 437 kts 297°
2026-05-05 18:38 45.39863 18.55793 35973 ft 437 kts 297°
2026-05-05 18:39 45.42748 18.48191 35979 ft 436 kts 297°
2026-05-05 18:39 45.45625 18.40590 35974 ft 436 kts 297°
2026-05-05 18:40 45.48495 18.32985 35960 ft 436 kts 297°
2026-05-05 18:40 45.51344 18.25415 35976 ft 437 kts 296°
2026-05-05 18:41 45.54213 18.17772 35973 ft 437 kts 296°
2026-05-05 18:41 45.57081 18.10109 35972 ft 438 kts 296°
2026-05-05 18:42 45.59945 18.02435 35971 ft 438 kts 296°
2026-05-05 18:42 45.62808 17.94744 35974 ft 438 kts 296°
2026-05-05 18:43 45.65645 17.87099 35970 ft 438 kts 296°
2026-05-05 18:43 45.68495 17.79397 35969 ft 438 kts 296°
2026-05-05 18:44 45.71335 17.71700 35973 ft 437 kts 296°
2026-05-05 18:44 45.74165 17.64012 35971 ft 437 kts 296°
2026-05-05 18:45 45.76968 17.56371 35974 ft 436 kts 296°
2026-05-05 18:45 45.79783 17.48680 35977 ft 436 kts 296°
2026-05-05 18:46 45.82590 17.40985 35967 ft 435 kts 296°
2026-05-05 18:46 45.85388 17.33296 35966 ft 435 kts 296°
2026-05-05 18:47 45.88183 17.25591 35968 ft 435 kts 296°
2026-05-05 18:47 45.90956 17.17925 35978 ft 436 kts 296°
2026-05-05 18:48 45.93744 17.10196 35964 ft 436 kts 296°
2026-05-05 18:48 45.96527 17.02460 35963 ft 436 kts 296°
2026-05-05 18:49 45.99303 16.94719 35962 ft 435 kts 296°
2026-05-05 18:49 46.02054 16.87026 35958 ft 435 kts 296°
2026-05-05 18:50 46.04819 16.79271 35961 ft 436 kts 295°
2026-05-05 18:50 46.07580 16.71507 35955 ft 436 kts 295°
2026-05-05 18:51 46.09945 16.63502 35963 ft 434 kts 286°
2026-05-05 18:51 46.11645 16.55225 35957 ft 434 kts 285°
2026-05-05 18:52 46.13355 16.46875 35949 ft 435 kts 285°
2026-05-05 18:52 46.15090 16.38514 35961 ft 436 kts 285°
2026-05-05 18:53 46.16834 16.30140 35949 ft 436 kts 285°
2026-05-05 18:53 46.18564 16.21807 35958 ft 436 kts 285°
2026-05-05 18:54 46.20299 16.13411 35965 ft 437 kts 285°
2026-05-05 18:54 46.22031 16.04988 35953 ft 438 kts 285°
2026-05-05 18:55 46.23759 15.96552 35956 ft 438 kts 285°
2026-05-05 18:55 46.25483 15.88102 35950 ft 439 kts 285°
2026-05-05 18:56 46.27564 15.79827 35944 ft 441 kts 296°
2026-05-05 18:56 46.30561 15.72143 35952 ft 442 kts 297°
2026-05-05 18:57 46.33596 15.64408 35941 ft 442 kts 297°
2026-05-05 18:57 46.36600 15.56636 35940 ft 442 kts 297°
2026-05-05 18:58 46.39581 15.48852 35941 ft 442 kts 297°
2026-05-05 18:58 46.42535 15.41108 35925 ft 442 kts 296°
2026-05-05 18:59 46.45506 15.33296 35928 ft 443 kts 296°
2026-05-05 18:59 46.48479 15.25458 35934 ft 444 kts 296°
2026-05-05 19:00 46.51449 15.17607 35943 ft 444 kts 296°
2026-05-05 19:00 46.54415 15.09744 35954 ft 444 kts 296°
2026-05-05 19:01 46.57360 15.01913 35955 ft 445 kts 296°
2026-05-05 19:01 46.60325 14.94008 35945 ft 446 kts 296°
2026-05-05 19:02 46.63188 14.86009 35940 ft 445 kts 294°
2026-05-05 19:02 46.65874 14.77896 35949 ft 445 kts 293°
2026-05-05 19:03 46.68526 14.69833 35946 ft 445 kts 293°
2026-05-05 19:03 46.71220 14.61704 35941 ft 446 kts 293°
2026-05-05 19:04 46.73926 14.53558 35938 ft 447 kts 293°
2026-05-05 19:04 46.76631 14.45402 35940 ft 447 kts 293°
2026-05-05 19:05 46.79327 14.37246 35950 ft 447 kts 293°
2026-05-05 19:05 46.82006 14.29116 35940 ft 448 kts 293°
2026-05-05 19:06 46.84697 14.20922 35936 ft 448 kts 293°
2026-05-05 19:06 46.87385 14.12710 35926 ft 448 kts 293°
2026-05-05 19:07 46.90066 14.04494 35927 ft 447 kts 293°
2026-05-05 19:07 46.92720 13.96335 35924 ft 447 kts 292°
2026-05-05 19:08 46.95383 13.88120 35929 ft 447 kts 292°
2026-05-05 19:08 46.98039 13.79902 35928 ft 446 kts 292°
2026-05-05 19:09 47.00688 13.71679 35930 ft 446 kts 292°
2026-05-05 19:09 47.03331 13.63449 35939 ft 446 kts 292°
2026-05-05 19:10 47.05951 13.55261 35929 ft 447 kts 292°
2026-05-05 19:10 47.08582 13.47016 35929 ft 446 kts 292°
2026-05-05 19:11 47.11203 13.38774 35913 ft 445 kts 291°
2026-05-05 19:11 47.13816 13.30531 35909 ft 446 kts 291°
2026-05-05 19:12 47.16409 13.22324 35917 ft 446 kts 291°
2026-05-05 19:12 47.19009 13.14068 35885 ft 444 kts 291°
2026-05-05 19:13 47.21598 13.05823 35857 ft 445 kts 291°
2026-05-05 19:13 47.22901 13.01655 35490 ft 451 kts 291°
2026-05-05 19:13 47.24211 12.97461 35091 ft 452 kts 291°
2026-05-05 19:14 47.25500 12.93334 34691 ft 448 kts 291°
2026-05-05 19:14 47.26796 12.89179 34302 ft 448 kts 290°
2026-05-05 19:14 47.28098 12.84995 33876 ft 450 kts 290°
2026-05-05 19:14 47.29399 12.80801 33414 ft 451 kts 290°
2026-05-05 19:15 47.30703 12.76593 32945 ft 452 kts 290°
2026-05-05 19:15 47.32008 12.72377 32517 ft 452 kts 290°
2026-05-05 19:15 47.33312 12.68158 32078 ft 453 kts 290°
2026-05-05 19:15 47.34616 12.63936 31664 ft 452 kts 290°
2026-05-05 19:16 47.35919 12.59707 31257 ft 453 kts 290°
2026-05-05 19:16 47.37201 12.55533 30800 ft 453 kts 290°
2026-05-05 19:16 47.38498 12.51309 30451 ft 451 kts 290°
2026-05-05 19:16 47.39778 12.47135 30012 ft 444 kts 290°
2026-05-05 19:17 47.41043 12.43011 29559 ft 436 kts 289°
2026-05-05 19:17 47.42283 12.38955 29143 ft 432 kts 289°
2026-05-05 19:17 47.43511 12.34925 28709 ft 429 kts 289°
2026-05-05 19:17 47.44729 12.30920 28297 ft 426 kts 289°
2026-05-05 19:18 47.45941 12.26929 27901 ft 425 kts 289°
2026-05-05 19:18 47.47148 12.22948 27651 ft 424 kts 289°
2026-05-05 19:18 47.48354 12.18962 27369 ft 425 kts 289°
2026-05-05 19:18 47.49554 12.14993 27107 ft 422 kts 289°
2026-05-05 19:19 47.50732 12.11096 26855 ft 419 kts 289°
2026-05-05 19:19 47.51914 12.07178 26590 ft 415 kts 289°
2026-05-05 19:19 47.53084 12.03294 26343 ft 412 kts 289°
2026-05-05 19:19 47.54074 11.99357 26080 ft 405 kts 280°
2026-05-05 19:20 47.54683 11.95315 25788 ft 401 kts 277°
2026-05-05 19:20 47.55232 11.91256 25468 ft 403 kts 277°
2026-05-05 19:20 47.55773 11.87146 25214 ft 410 kts 277°
2026-05-05 19:20 47.56325 11.82994 24875 ft 410 kts 277°
2026-05-05 19:21 47.56884 11.78872 24460 ft 407 kts 277°
2026-05-05 19:21 47.57444 11.74790 24059 ft 403 kts 277°
2026-05-05 19:21 47.58001 11.70728 23706 ft 402 kts 277°
2026-05-05 19:21 47.58554 11.66726 23279 ft 402 kts 277°
2026-05-05 19:22 47.59113 11.62676 22824 ft 400 kts 277°
2026-05-05 19:22 47.59667 11.58645 22399 ft 399 kts 278°
2026-05-05 19:22 47.60214 11.54634 22007 ft 396 kts 278°
2026-05-05 19:22 47.60757 11.50648 21604 ft 393 kts 278°
2026-05-05 19:23 47.61295 11.46692 21197 ft 391 kts 278°
2026-05-05 19:23 47.61828 11.42766 20830 ft 388 kts 278°
2026-05-05 19:23 47.62353 11.38855 20440 ft 386 kts 278°
2026-05-05 19:23 47.62844 11.34960 20093 ft 384 kts 277°
2026-05-05 19:24 47.63317 11.31073 19692 ft 382 kts 277°
2026-05-05 19:24 47.63782 11.27198 19298 ft 382 kts 277°
2026-05-05 19:24 47.64246 11.23331 18913 ft 380 kts 277°
2026-05-05 19:24 47.64702 11.19533 18525 ft 378 kts 277°
2026-05-05 19:25 47.65162 11.15704 18138 ft 376 kts 277°
2026-05-05 19:25 47.65620 11.11894 17706 ft 374 kts 277°
2026-05-05 19:25 47.66075 11.08107 17293 ft 371 kts 278°
2026-05-05 19:25 47.66525 11.04350 16892 ft 368 kts 278°
2026-05-05 19:26 47.66969 11.00635 16509 ft 363 kts 278°
2026-05-05 19:26 47.67405 10.96982 16151 ft 356 kts 277°
2026-05-05 19:26 47.67832 10.93393 15776 ft 350 kts 277°
2026-05-05 19:26 47.68250 10.89860 15410 ft 345 kts 277°
2026-05-05 19:27 47.68661 10.86381 15057 ft 340 kts 277°
2026-05-05 19:27 47.69061 10.82992 14711 ft 336 kts 277°
2026-05-05 19:27 47.69458 10.79604 14372 ft 331 kts 277°
2026-05-05 19:27 47.69851 10.76254 14034 ft 328 kts 277°
2026-05-05 19:28 47.70238 10.72941 13690 ft 324 kts 277°
2026-05-05 19:28 47.70621 10.69654 13313 ft 321 kts 277°
2026-05-05 19:28 47.70999 10.66400 12947 ft 318 kts 277°
2026-05-05 19:28 47.71372 10.63185 12601 ft 315 kts 277°
2026-05-05 19:29 47.71742 10.59994 12247 ft 312 kts 277°
2026-05-05 19:29 47.72107 10.56829 11904 ft 309 kts 277°
2026-05-05 19:29 47.72468 10.53693 11584 ft 307 kts 277°
2026-05-05 19:29 47.72825 10.50585 11254 ft 305 kts 276°
2026-05-05 19:30 47.73180 10.47494 10927 ft 303 kts 276°
2026-05-05 19:30 47.73525 10.44470 10596 ft 297 kts 276°
2026-05-05 19:30 47.73866 10.41496 10279 ft 288 kts 276°
2026-05-05 19:30 47.74302 10.38629 9993 ft 283 kts 289°
2026-05-05 19:31 47.75418 10.36255 9854 ft 284 kts 312°
2026-05-05 19:31 47.77092 10.34618 9472 ft 295 kts 333°
2026-05-05 19:31 47.79092 10.33896 9184 ft 296 kts 348°
2026-05-05 19:31 47.81120 10.33489 8869 ft 292 kts 348°
2026-05-05 19:32 47.83118 10.33090 8587 ft 287 kts 348°
2026-05-05 19:32 47.85087 10.32676 8306 ft 285 kts 348°
2026-05-05 19:32 47.87031 10.32255 8073 ft 279 kts 348°
2026-05-05 19:32 47.88953 10.32121 7786 ft 280 kts
2026-05-05 19:33 47.90715 10.33310 7549 ft 289 kts 38°
2026-05-05 19:33 47.92013 10.35620 7309 ft 293 kts 59°
2026-05-05 19:33 47.93028 10.38237 7018 ft 289 kts 60°
2026-05-05 19:33 47.93998 10.40772 6764 ft 274 kts 60°
2026-05-05 19:34 47.94929 10.43174 6485 ft 261 kts 59°
2026-05-05 19:34 47.95827 10.45468 6234 ft 252 kts 59°
2026-05-05 19:34 47.96703 10.47703 6110 ft 247 kts 59°
2026-05-05 19:35 47.98789 10.51804 5921 ft 252 kts 25°
2026-05-05 19:35 48.00423 10.52385 5804 ft 237 kts 352°
2026-05-05 19:35 48.01953 10.51807 5732 ft 224 kts 330°
2026-05-05 19:35 48.03298 10.50704 5606 ft 219 kts 325°
2026-05-05 19:36 48.04613 10.49528 5383 ft 221 kts 324°
2026-05-05 19:36 48.05927 10.48352 5162 ft 220 kts 323°
2026-05-05 19:36 48.06954 10.46784 5017 ft 205 kts 290°
2026-05-05 19:36 48.07075 10.44749 4873 ft 201 kts 254°
2026-05-05 19:37 48.06448 10.42883 4743 ft 203 kts 240°
2026-05-05 19:37 48.05716 10.41138 4477 ft 190 kts 240°
2026-05-05 19:37 48.05061 10.39527 4235 ft 173 kts 241°
2026-05-05 19:37 48.04466 10.38036 4015 ft 163 kts 242°
2026-05-05 19:38 48.03891 10.36587 3809 ft 161 kts 241°
2026-05-05 19:38 48.03328 10.35167 3600 ft 161 kts 241°
2026-05-05 19:38 48.02765 10.33753 3413 ft 151 kts 242°
2026-05-05 19:38 48.02247 10.32448 3181 ft 140 kts 242°
2026-05-05 19:39 48.01747 10.31187 3026 ft 142 kts 241°
2026-05-05 19:39 48.01246 10.29921 2822 ft 143 kts 240°
2026-05-05 19:39 48.00733 10.28615 2663 ft 147 kts 240°
2026-05-05 19:39 48.00217 10.27278 2423 ft 150 kts 237°
2026-05-05 19:40 47.99676 10.25958 2174 ft 147 kts 238°
2026-05-05 19:40 47.99177 10.24714 2066 ft 125 kts 237°
2026-05-05 19:40 47.98846 10.23885 2072 ft 65 kts 242°
2026-05-05 19:40 47.98746 10.23588 2079 ft 7 kts 255°
2026-05-05 19:41 47.98730 10.23579 2079 ft 2 kts 114°
2026-05-05 19:41 47.98742 10.23604 2078 ft 7 kts 56°
2026-05-05 19:41 47.98791 10.23719 2076 ft 15 kts 57°
2026-05-05 19:41 47.98828 10.23760 2076 ft 5 kts 355°
2026-05-05 19:42 47.98863 10.23743 2075 ft 5 kts 332°
2026-05-05 19:42 47.98893 10.23709 2076 ft 6 kts 313°
2026-05-05 19:42 47.98903 10.23643 2072 ft 8 kts 268°
2026-05-05 19:42 47.98903 10.23642 2072 ft 8 kts 268°
2026-05-05 19:43 47.98900 10.23612 2074 ft 9 kts 256°
2026-05-05 19:43 47.98885 10.23528 2075 ft 8 kts 255°
2026-05-05 19:43 47.98869 10.23447 2079 ft 8 kts 252°
2026-05-05 19:43 47.98858 10.23405 2080 ft 8 kts 249°
2026-05-05 19:44 47.98852 10.23348 2080 ft 8 kts 284°
2026-05-05 19:44 47.98876 10.23304 2076 ft 3 kts 348°
2026-05-05 19:44 47.98890 10.23323 2079 ft 2 kts 64°
2026-05-05 19:45 47.98892 10.23330 2079 ft 0 kts 61°